{"data":{"norad_id":58973,"intl_designator":"2024-031J","name":"STARLINK-31365","alt_names":[],"object_type":"PAYLOAD","status":"ACTIVE","operator":null,"country":"US","launch_date":"2024-02-15","launch_site_code":"AFWTR","launch_vehicle":null,"mission":null,"orbit_class":"UNKNOWN","rcs_meters":null,"size_class":null,"mass_kg":null,"dimensions":null,"purposes":["comms"],"wikipedia_slug":null,"has_3d_model":false,"image_url":null,"decayed_at":null,"tle_current":{"epoch":"2026-09-20T19:56:41.004096Z","epoch_age_seconds":126963,"freshness":"FRESH","line1":"1 58973U 24031J   26263.83103014  .00001209  00000+0  46937-4 0  9995","line2":"2 58973  53.1573 107.9093 0001356  90.5162 269.5996 15.34393336146440","mean_motion":15.34393336,"eccentricity":0.0001356,"inclination_deg":53.1573,"raan_deg":107.9093,"arg_perigee_deg":90.5162,"mean_anomaly_deg":269.5996,"bstar":4.6937e-5,"rev_number":14644,"period_min":93.848165670083,"perigee_km":461.79542646878,"apogee_km":463.65066771355,"semimajor_km":6840.8600470912,"source":"CELESTRAK","updated_at":"2026-09-21T09:00:34.020280Z"}}}